<?xml version="1.0"?>
<gpx xmlns="http://www.topografix.com/GPX/1/1" xmlns:xsi="http://www.w3.org/2001/XMLSchema-instance" version="1.1" creator="GPX RubyGem 1.0.0 -- http://dougfales.github.io/gpx/" xsi:schemaLocation="http://www.topografix.com/GPX/1/1 http://www.topografix.com/GPX/1/1/gpx.xsd">
  <metadata>
    <name/>
    <time>2026-05-07T13:51:29+00:00</time>
    <bound minlat="90.0" minlon="180.0" maxlat="-90.0" maxlon="-180.0"/>
  </metadata>
  <trk>
    <name/>
    <trkseg>
      <trkpt lat="47.486166" lon="10.288245">
        <time>1970-01-01T00:00:00+00:00</time>
        <ele>772.0</ele>
      </trkpt>
      <trkpt lat="47.486299" lon="10.288704">
        <time>1970-01-01T00:00:00+00:00</time>
        <ele>778.0</ele>
      </trkpt>
      <trkpt lat="47.486345" lon="10.288927">
        <time>1970-01-01T00:00:00+00:00</time>
        <ele>782.0</ele>
      </trkpt>
      <trkpt lat="47.486366" lon="10.288949">
        <time>1970-01-01T00:00:00+00:00</time>
        <ele>783.0</ele>
      </trkpt>
      <trkpt lat="47.486356" lon="10.288978">
        <time>1970-01-01T00:00:00+00:00</time>
        <ele>784.0</ele>
      </trkpt>
      <trkpt lat="47.486361" lon="10.288999">
        <time>1970-01-01T00:00:00+00:00</time>
        <ele>784.0</ele>
      </trkpt>
      <trkpt lat="47.486377" lon="10.289088">
        <time>1970-01-01T00:00:00+00:00</time>
        <ele>786.0</ele>
      </trkpt>
      <trkpt lat="47.486426" lon="10.289286">
        <time>1970-01-01T00:00:00+00:00</time>
        <ele>788.0</ele>
      </trkpt>
      <trkpt lat="47.48652" lon="10.289495">
        <time>1970-01-01T00:00:00+00:00</time>
        <ele>792.0</ele>
      </trkpt>
      <trkpt lat="47.486816" lon="10.289782">
        <time>1970-01-01T00:00:00+00:00</time>
        <ele>798.0</ele>
      </trkpt>
      <trkpt lat="47.486907" lon="10.289851">
        <time>1970-01-01T00:00:00+00:00</time>
        <ele>798.0</ele>
      </trkpt>
      <trkpt lat="47.48708" lon="10.289926">
        <time>1970-01-01T00:00:00+00:00</time>
        <ele>799.0</ele>
      </trkpt>
      <trkpt lat="47.48746" lon="10.290247">
        <time>1970-01-01T00:00:00+00:00</time>
        <ele>803.0</ele>
      </trkpt>
      <trkpt lat="47.487761" lon="10.290398">
        <time>1970-01-01T00:00:00+00:00</time>
        <ele>808.0</ele>
      </trkpt>
      <trkpt lat="47.487935" lon="10.290417">
        <time>1970-01-01T00:00:00+00:00</time>
        <ele>810.0</ele>
      </trkpt>
      <trkpt lat="47.488008" lon="10.290467">
        <time>1970-01-01T00:00:00+00:00</time>
        <ele>810.0</ele>
      </trkpt>
      <trkpt lat="47.488106" lon="10.290549">
        <time>1970-01-01T00:00:00+00:00</time>
        <ele>812.0</ele>
      </trkpt>
      <trkpt lat="47.488163" lon="10.290559">
        <time>1970-01-01T00:00:00+00:00</time>
        <ele>813.0</ele>
      </trkpt>
      <trkpt lat="47.488166" lon="10.290911">
        <time>1970-01-01T00:00:00+00:00</time>
        <ele>817.0</ele>
      </trkpt>
      <trkpt lat="47.487193" lon="10.291916">
        <time>1970-01-01T00:00:00+00:00</time>
        <ele>829.0</ele>
      </trkpt>
      <trkpt lat="47.487016" lon="10.29275">
        <time>1970-01-01T00:00:00+00:00</time>
        <ele>828.0</ele>
      </trkpt>
      <trkpt lat="47.487124" lon="10.293553">
        <time>1970-01-01T00:00:00+00:00</time>
        <ele>842.0</ele>
      </trkpt>
      <trkpt lat="47.487201" lon="10.293761">
        <time>1970-01-01T00:00:00+00:00</time>
        <ele>846.0</ele>
      </trkpt>
      <trkpt lat="47.48725" lon="10.293671">
        <time>1970-01-01T00:00:00+00:00</time>
        <ele>845.0</ele>
      </trkpt>
      <trkpt lat="47.487268" lon="10.293837">
        <time>1970-01-01T00:00:00+00:00</time>
        <ele>847.0</ele>
      </trkpt>
      <trkpt lat="47.487268" lon="10.293837">
        <time>1970-01-01T00:00:00+00:00</time>
        <ele>847.0</ele>
      </trkpt>
      <trkpt lat="47.487322" lon="10.293735">
        <time>1970-01-01T00:00:00+00:00</time>
        <ele>846.0</ele>
      </trkpt>
      <trkpt lat="47.487338" lon="10.293943">
        <time>1970-01-01T00:00:00+00:00</time>
        <ele>849.0</ele>
      </trkpt>
      <trkpt lat="47.487373" lon="10.293572">
        <time>1970-01-01T00:00:00+00:00</time>
        <ele>844.0</ele>
      </trkpt>
      <trkpt lat="47.487371" lon="10.29331">
        <time>1970-01-01T00:00:00+00:00</time>
        <ele>840.0</ele>
      </trkpt>
      <trkpt lat="47.487494" lon="10.292765">
        <time>1970-01-01T00:00:00+00:00</time>
        <ele>842.0</ele>
      </trkpt>
      <trkpt lat="47.487498" lon="10.292402">
        <time>1970-01-01T00:00:00+00:00</time>
        <ele>840.0</ele>
      </trkpt>
      <trkpt lat="47.48761" lon="10.292029">
        <time>1970-01-01T00:00:00+00:00</time>
        <ele>840.0</ele>
      </trkpt>
      <trkpt lat="47.488427" lon="10.291126">
        <time>1970-01-01T00:00:00+00:00</time>
        <ele>827.0</ele>
      </trkpt>
      <trkpt lat="47.488568" lon="10.291049">
        <time>1970-01-01T00:00:00+00:00</time>
        <ele>827.0</ele>
      </trkpt>
      <trkpt lat="47.488538" lon="10.290854">
        <time>1970-01-01T00:00:00+00:00</time>
        <ele>822.0</ele>
      </trkpt>
      <trkpt lat="47.488455" lon="10.290687">
        <time>1970-01-01T00:00:00+00:00</time>
        <ele>819.0</ele>
      </trkpt>
      <trkpt lat="47.488389" lon="10.290598">
        <time>1970-01-01T00:00:00+00:00</time>
        <ele>817.0</ele>
      </trkpt>
      <trkpt lat="47.488163" lon="10.290559">
        <time>1970-01-01T00:00:00+00:00</time>
        <ele>813.0</ele>
      </trkpt>
      <trkpt lat="47.488106" lon="10.290549">
        <time>1970-01-01T00:00:00+00:00</time>
        <ele>812.0</ele>
      </trkpt>
      <trkpt lat="47.488008" lon="10.290467">
        <time>1970-01-01T00:00:00+00:00</time>
        <ele>810.0</ele>
      </trkpt>
      <trkpt lat="47.487935" lon="10.290417">
        <time>1970-01-01T00:00:00+00:00</time>
        <ele>810.0</ele>
      </trkpt>
      <trkpt lat="47.487761" lon="10.290398">
        <time>1970-01-01T00:00:00+00:00</time>
        <ele>808.0</ele>
      </trkpt>
      <trkpt lat="47.48746" lon="10.290247">
        <time>1970-01-01T00:00:00+00:00</time>
        <ele>803.0</ele>
      </trkpt>
      <trkpt lat="47.48708" lon="10.289926">
        <time>1970-01-01T00:00:00+00:00</time>
        <ele>799.0</ele>
      </trkpt>
      <trkpt lat="47.486907" lon="10.289851">
        <time>1970-01-01T00:00:00+00:00</time>
        <ele>798.0</ele>
      </trkpt>
      <trkpt lat="47.486816" lon="10.289782">
        <time>1970-01-01T00:00:00+00:00</time>
        <ele>798.0</ele>
      </trkpt>
      <trkpt lat="47.48652" lon="10.289495">
        <time>1970-01-01T00:00:00+00:00</time>
        <ele>792.0</ele>
      </trkpt>
      <trkpt lat="47.486426" lon="10.289286">
        <time>1970-01-01T00:00:00+00:00</time>
        <ele>788.0</ele>
      </trkpt>
      <trkpt lat="47.486377" lon="10.289088">
        <time>1970-01-01T00:00:00+00:00</time>
        <ele>786.0</ele>
      </trkpt>
      <trkpt lat="47.486361" lon="10.288999">
        <time>1970-01-01T00:00:00+00:00</time>
        <ele>784.0</ele>
      </trkpt>
      <trkpt lat="47.486356" lon="10.288978">
        <time>1970-01-01T00:00:00+00:00</time>
        <ele>784.0</ele>
      </trkpt>
      <trkpt lat="47.486366" lon="10.288949">
        <time>1970-01-01T00:00:00+00:00</time>
        <ele>783.0</ele>
      </trkpt>
      <trkpt lat="47.486345" lon="10.288927">
        <time>1970-01-01T00:00:00+00:00</time>
        <ele>782.0</ele>
      </trkpt>
      <trkpt lat="47.486299" lon="10.288704">
        <time>1970-01-01T00:00:00+00:00</time>
        <ele>778.0</ele>
      </trkpt>
      <trkpt lat="47.486166" lon="10.288245">
        <time>1970-01-01T00:00:00+00:00</time>
        <ele>772.0</ele>
      </trkpt>
    </trkseg>
  </trk>
</gpx>
